Regional Weather Roundup
Issued by NWS

Home | Current Version | Previous Version | Text Only | Print | Product List | Glossary On
Versions: 1 2 3 4 5 6 7 8 9 10 11 12 13 14 15 16 17 18 19 20 21 22 23 24 25 26 27 28 29 30 31 32 33 34 35 36 37 38 39 40 41 42 43 44 45 46 47 48 49 50
000
ASUS43 KIND 080010
RWRIN

WEATHER ROUNDUP FOR INDIANA
NATIONAL WEATHER SERVICE INDIANAPOLIS IN
800 PM EDT SUN AUG 07 2022

NOTE: "FAIR" INDICATES FEW OR NO CLOUDS BELOW 12,000 FEET WITH NO
SIGNIFICANT WEATHER AND/OR OBSTRUCTIONS TO VISIBILITY.

* - STATION DOES NOT REPORT WEATHER SUCH AS PRECIPITATION OR FOG.

+ - STATION NOT QUALITY CONTROLLED BY THE NATIONAL WEATHER SERVICE.
    USE DATA WITH CAUTION...ESPECIALLY DEWPOINT AND RELATIVE
    HUMIDITY OBSERVATIONS.

INZ001>003-010>013-019-020-080100-
NORTHWEST INDIANA

CITY           SKY/WX    TMP DP  RH WIND       PRES   REMARKS
GARY /AIRPORT/ MOCLDY    77  73  88 CALM      30.04S
KNOX *+        MOCLDY    73  73 100 CALM      30.02R
LA PORTE +     CLOUDY    73  73 100 W3        30.04R
6HR MIN TEMP:  73; 6HR MAX TEMP:  76; 6HR PCP:  0.04;

MICHIGAN CITY+ CLOUDY    73  72  94 W3        30.04R
MONTICELLO +   MOCLDY    76  75  96 S5        30.03S
6HR MIN TEMP:  74; 6HR MAX TEMP:  88; 6HR PCP:  0.29;

RENSSELAER +   MOCLDY    77  73  88 S7        30.03S
VALPARAISO     CLOUDY    75  71  87 W6        30.04R
6HR MIN TEMP:  73; 6HR MAX TEMP:  79; 6HR PCP:  0.27;


$$

LMZ046-743>745-080100-
SOUTHERN LAKE MICHIGAN

STATION/POSITION TIME  TEMP WIND        PRES
                       AIR  DIR/SP/G
                 (UTC) (F)  (DEG/KT/KT) (MB)
BURNS HARBOR     2340   76  240/  5/  5 1017.3R
MICHIGAN CITY    2340   76  240/  2/  5 1015.5R
5NW MICH CITY    2350   76                N/A

$$

INZ004-005-014>016-021>024-080100-
NORTH CENTRAL INDIANA

CITY           SKY/WX    TMP DP  RH WIND       PRES   REMARKS
ELKHART        MOCLDY    76  72  86 SW5       30.04R
GOSHEN         CLOUDY    74  72  93 S5        30.03R
6HR MIN TEMP:  73; 6HR MAX TEMP:  76; 6HR PCP:  1.11;

LOGANSPORT +   MOCLDY    73  72  94 CALM      30.06R
PERU/GRISSOM   MOCLDY    78  73  85 SW5       30.04R
6HR MIN TEMP:  77; 6HR MAX TEMP:  88; 6HR PCP: TRACE;

ROCHESTER +    MOCLDY    75  73  94 S7        30.03S
SOUTH BEND     MOCLDY    77  71  82 SW6       30.03R
6HR MIN TEMP:  77; 6HR MAX TEMP:  81; 6HR PCP: TRACE;


$$

INZ006>009-017-018-025>027-080100-
NORTHEAST INDIANA

CITY           SKY/WX    TMP DP  RH WIND       PRES   REMARKS
ANGOLA *+      MOCLDY    77  73  88 S5        30.03R
AUBURN +       MOCLDY    77  72  83 CALM      30.05S
FORT WAYNE     MOCLDY    77  71  82 SW5       30.05R
6HR MIN TEMP:  75; 6HR MAX TEMP:  89; 6HR PCP:  0.39;

HUNTINGTON +   MOCLDY    77  72  84 CALM      30.05R
6HR MIN TEMP:  77; 6HR MAX TEMP:  89;

KENDALLVILLE + FAIR      75  75 100 CALM      30.05R

$$

INZ028-029-035-036-043>045-051>053-080100-
WEST CENTRAL INDIANA

CITY           SKY/WX    TMP DP  RH WIND       PRES   REMARKS
CRAWFORDSVL +  MOCLDY    80  65  60 CALM      30.07R
6HR MIN TEMP:  79; 6HR MAX TEMP:  86;

LAFAYETTE      MOCLDY    83  74  74 CALM      30.03S
6HR MIN TEMP:  78; 6HR MAX TEMP:  92; 6HR PCP: TRACE;

TERRE HAUTE    PTCLDY    85  77  77 SW5       30.05R HX  95
6HR MIN TEMP:  78; 6HR MAX TEMP:  92; 6HR PCP:  0.16;


$$

INZ030>032-037>040-046>048-054>057-064-065-080100-
CENTRAL INDIANA

CITY           SKY/WX    TMP DP  RH WIND       PRES   REMARKS
ANDERSON       PTCLDY    80  69  68 CALM      30.06
COLUMBUS       PTCLDY    84  73  70 SW7       30.06F HX  91
FISHERS *+     PTCLDY    85  78  79 CALM      30.06S HX  96
FRANKFORT +    MOCLDY    81  75  83 CALM      30.05R
GREENWOOD *+   PTCLDY    87  76  69 SW7       30.06F HX  97
6HR MIN TEMP:  86; 6HR MAX TEMP:  89;

INDIANAPOLIS   MOCLDY    85  72  65 SW10      30.05S HX  91
6HR MIN TEMP:  85; 6HR MAX TEMP:  91;

-EAGLE CREEK   PTCLDY    85  73  67 VRB3      30.05R HX  91
6HR MIN TEMP:  85; 6HR MAX TEMP:  91;

KOKOMO +       MOCLDY    79  51  36 S3        30.07R
6HR MIN TEMP:  79; 6HR MAX TEMP:  90; 6HR PCP: TRACE;

MT COMFORT *+  MOCLDY    82  73  74 E5        30.06F
SHELBYVILLE    PTCLDY    87  75  67 S6        30.05F HX  96
6HR MIN TEMP:  87; 6HR MAX TEMP:  91;

ZIONSVILLE +   MOCLDY    80  76  87 S3        30.07S
6HR MIN TEMP:  79; 6HR MAX TEMP:  88;


$$

INZ033-034-041-042-049-050-058-059-080100-
EAST CENTRAL INDIANA

CITY           SKY/WX    TMP DP  RH WIND       PRES   REMARKS
MUNCIE         PTCLDY    84  71  65 CALM      30.05F
6HR MIN TEMP:  84; 6HR MAX TEMP:  90;


$$

INZ060-061-067>069-081>083-085>088-080100-
SOUTHWEST INDIANA

CITY           SKY/WX    TMP DP  RH WIND       PRES   REMARKS
EVANSVILLE     PTCLDY    86  74  67 S8        30.07S HX  94
6HR MIN TEMP:  86; 6HR MAX TEMP:  92;

HUNTINGBURG *+ CLOUDY    85  77  77 S10       30.08F HX  95
6HR MIN TEMP:  84; 6HR MAX TEMP:  89; 6HR PCP: TRACE;

WASHINGTON +   CLEAR     86  74  68 SW5       30.05S HX  94
6HR MIN TEMP:  86; 6HR MAX TEMP:  90;


$$

INZ062-063-066-070>080-084-089>092-080100-
SOUTH CENTRAL AND SOUTHEAST INDIANA

CITY           SKY/WX    TMP DP  RH WIND       PRES   REMARKS
BLOOMINGTON    CLEAR     87  73  62 SW6       30.07S HX  94
6HR MIN TEMP:  87; 6HR MAX TEMP:  92;

MADISON *+     CLEAR     82  77  83 CALM      30.10F HX  91

$$




USA.gov is the U.S. government's official web portal to all federal, state and local government web resources and services.